This is the latest recevied weather packets stored in our database for station/object N8SDR. If no packets are shown the sender has not sent any weather packets the latest 10 day(s).
| Time | Temp. | Humidity | Pressure | Rain* | Wind** | Luminosity | Snow |
|---|---|---|---|---|---|---|---|
| 1777320583 | 25° C | 66% | 1007.9 hPa | 0 mm | - | 86 W/m² | - |
| 1777320281 | 25° C | 63% | 1008.2 hPa | 0 mm | - | 108 W/m² | - |
| 1777319977 | 25° C | 63% | 1008.4 hPa | 0 mm | - | 118 W/m² | - |
| 1777319675 | 25° C | 62% | 1008.5 hPa | 0 mm | - | 129 W/m² | - |
| 1777319371 | 25° C | 62% | 1008.7 hPa | 0 mm | - | 155 W/m² | - |
| 1777319068 | 25° C | 62% | 1008.5 hPa | 0 mm | - | 170 W/m² | - |
| 1777318766 | 25° C | 62% | 1008.6 hPa | 0 mm | - | 180 W/m² | - |
| 1777318460 | 25.56° C | 62% | 1008.8 hPa | 0 mm | - | 156 W/m² | - |
| 1777318158 | 25.56° C | 61% | 1008.9 hPa | 0 mm | - | 180 W/m² | - |
| 1777317855 | 25.56° C | 62% | 1008.9 hPa | 0 mm | - | 219 W/m² | - |
| 1777317552 | 25.56° C | 61% | 1009.1 hPa | 0 mm | - | 261 W/m² | - |
| 1777317249 | 25.56° C | 61% | 1009 hPa | 0 mm | - | 323 W/m² | - |
| 1777316945 | 25.56° C | 61% | 1009 hPa | 0 mm | - | 358 W/m² | - |
| 1777316642 | 25.56° C | 61% | 1009.1 hPa | 0 mm | - | 374 W/m² | - |
| 1777316338 | 25.56° C | 62% | 1008.9 hPa | 0 mm | - | 379 W/m² | - |
| 1777316035 | 25.56° C | 62% | 1008.8 hPa | 0 mm | - | 347 W/m² | - |
| 1777315735 | 25.56° C | 62% | 1008.9 hPa | 0 mm | - | 332 W/m² | - |
| 1777315432 | 25.56° C | 63% | 1009.1 hPa | 0 mm | - | 389 W/m² | - |
| 1777315129 | 25.56° C | 63% | 1009.4 hPa | 0 mm | - | 433 W/m² | - |
| 1777314825 | 25.56° C | 63% | 1009.6 hPa | 0 mm | - | 501 W/m² | - |
| 1777314522 | 25.56° C | 63% | 1009.7 hPa | 0 mm | - | 524 W/m² | - |
| 1777314218 | 25° C | 63% | 1009.7 hPa | 0 mm | - | 555 W/m² | - |
| 1777313916 | 25° C | 64% | 1010 hPa | 0 mm | - | 396 W/m² | - |
| 1777313613 | 25° C | 64% | 1010.1 hPa | 0 mm | - | 509 W/m² | - |
| 1777313312 | 24.44° C | 65% | 1009.8 hPa | 0 mm | - | 400 W/m² | - |
* Rain latest hour (hover to see other rain measurements)
** Current wind speed in m/s (hover to see current wind gust speed)